Bodrum Milas, Turkey

9:54 AM +03 on February 21, 2017 (GMT +0300)
Bodrum

Weather History for LTFE - October, 2012

Change the Weather History Date:

Tuesday, October 30, 2012

  Actual Average Record
Temperature  
Mean Temperature 68 °F -  
Max Temperature 77 °F - - ()
Min Temperature 60 °F - - ()
Cooling Degree Days 4    
Growing Degree Days 18 (Base 50)    
Moisture  
Dew Point 56 °F    
Average Humidity 66    
Maximum Humidity 94    
Minimum Humidity 36    
Precipitation  
Precipitation 0.00 in - - ()
Sea Level Pressure  
Sea Level Pressure 29.87 in    
Wind  
Wind Speed 10 mph ()    
Max Wind Speed 26 mph    
Max Gust Speed 31 mph    
Visibility 6.0 miles    
Events Rain , Thunderstorm    
T = Trace of Precipitation, MM = Missing Value Source: Averaged Metar Reports

Daily Weather History Graph

Daily Weather History Graph

Search for Another Location

Airport or City:

Trip Planner

Search our weather history database for the weather conditions in past years. The results will help you decide how hot, cold, wet, or windy it might be!

Date:

Astronomy

Oct. 30, 2012 Rise Set
Actual Time 6:31 AM EET 5:13 PM EET
Civil Twilight 6:04 AM EET 5:40 PM EET
Nautical Twilight 5:34 AM EET 6:10 PM EET
Astronomical Twilight 5:03 AM EET 6:41 PM EET
Moon 5:32 PM EET (10/30) 6:59 AM EET (10/30)
Length of Visible Light 11h 35m
Length of Day
10h 41m
Full, 100% of the Moon is Illuminated
Oct 30
Full
Nov 7
Last Quarter
Nov 14
New
Nov 20
First Quarter
Nov 28
Full

Hourly Weather History & Observations

Time (EET) Temp. Dew Point Humidity Pressure Visibility Wind Dir Wind Speed Gust Speed Precip Events Conditions
12:20 AM 73.4 °F 57.2 °F 57% 29.80 in 6.2 mi SE 18.4 mph - N/A Thunderstorm Thunderstorm
12:50 AM 73.4 °F 59.0 °F 61% 29.83 in 6.2 mi SSE 15.0 mph - N/A Thunderstorm Thunderstorm
1:20 AM 73.4 °F 59.0 °F 61% 29.83 in 6.2 mi South 15.0 mph - N/A Thunderstorm Thunderstorm
1:50 AM 73.4 °F 60.8 °F 65% 29.77 in 6.2 mi SE 26.5 mph - N/A Rain , Thunderstorm Light Thunderstorms and Rain
2:20 AM 71.6 °F 59.0 °F 64% 29.74 in 6.2 mi SSE 21.9 mph - N/A Thunderstorm Thunderstorm
2:50 AM 73.4 °F 60.8 °F 65% 29.77 in 6.2 mi SSE 18.4 mph - N/A Rain , Thunderstorm Light Thunderstorms and Rain
3:20 AM 69.8 °F 62.6 °F 78% 29.77 in 6.2 mi SE 8.1 mph - N/A Rain , Thunderstorm Light Thunderstorms and Rain
3:50 AM 64.4 °F 62.6 °F 94% 29.80 in 2.5 mi West 12.7 mph 31.1 mph N/A Rain , Thunderstorm Heavy Thunderstorms and Rain
4:20 AM 66.2 °F 64.4 °F 94% 29.83 in 2.5 mi SW 21.9 mph - N/A Rain , Thunderstorm Heavy Thunderstorms and Rain
4:50 AM 66.2 °F 60.8 °F 83% 29.80 in 6.2 mi SW 15.0 mph - N/A Rain , Thunderstorm Light Thunderstorms and Rain
5:20 AM 66.2 °F 60.8 °F 83% 29.80 in 6.2 mi SSW 10.4 mph - N/A   Scattered Clouds
5:50 AM 66.2 °F 62.6 °F 88% 29.80 in 6.2 mi SSW 9.2 mph - N/A   Scattered Clouds
6:20 AM 66.2 °F 60.8 °F 83% 29.83 in 6.2 mi Variable 3.5 mph - N/A   Mostly Cloudy
6:50 AM 66.2 °F 62.6 °F 88% 29.83 in 6.2 mi ESE 4.6 mph - N/A   Mostly Cloudy
7:20 AM 66.2 °F 62.6 °F 88% 29.86 in 6.2 mi SSE 4.6 mph - N/A   Mostly Cloudy
7:50 AM 66.2 °F 62.6 °F 88% 29.86 in 6.2 mi SE 4.6 mph - N/A   Mostly Cloudy
8:20 AM 68.0 °F 62.6 °F 83% 29.86 in 6.2 mi ESE 4.6 mph - N/A   Mostly Cloudy
8:50 AM 68.0 °F 62.6 °F 83% 29.89 in 6.2 mi East 5.8 mph - N/A   Mostly Cloudy
9:20 AM 71.6 °F 57.2 °F 60% 29.89 in 6.2 mi Variable 2.3 mph - N/A   Mostly Cloudy
9:50 AM 73.4 °F 53.6 °F 50% 29.89 in 6.2 mi West 12.7 mph - N/A   Mostly Cloudy
10:20 AM 73.4 °F 51.8 °F 47% 29.89 in 6.2 mi WSW 12.7 mph - N/A   Mostly Cloudy
10:50 AM 75.2 °F 55.4 °F 50% 29.89 in 6.2 mi West 10.4 mph - N/A   Mostly Cloudy
11:20 AM 73.4 °F 51.8 °F 47% 29.89 in 6.2 mi West 10.4 mph - N/A   Mostly Cloudy
11:50 AM 75.2 °F 50.0 °F 41% 29.89 in 6.2 mi West 9.2 mph - N/A   Mostly Cloudy
12:20 PM 75.2 °F 50.0 °F 41% 29.86 in 6.2 mi West 8.1 mph - N/A   Mostly Cloudy
12:50 PM 75.2 °F 50.0 °F 41% 29.86 in 6.2 mi West 9.2 mph - N/A   Scattered Clouds
1:20 PM 75.2 °F 48.2 °F 38% 29.86 in 6.2 mi WNW 10.4 mph - N/A   Scattered Clouds
1:50 PM 77.0 °F 50.0 °F 39% 29.86 in 6.2 mi WNW 10.4 mph - N/A   Scattered Clouds
2:20 PM 75.2 °F 51.8 °F 44% 29.86 in 6.2 mi WNW 10.4 mph - N/A   Scattered Clouds
2:50 PM 75.2 °F 50.0 °F 41% 29.86 in 6.2 mi West 10.4 mph - N/A   Scattered Clouds
3:20 PM 75.2 °F 46.4 °F 36% 29.86 in 6.2 mi WSW 10.4 mph - N/A   Scattered Clouds
3:50 PM 75.2 °F 50.0 °F 41% 29.86 in 6.2 mi WSW 9.2 mph - N/A   Scattered Clouds
4:20 PM 73.4 °F 51.8 °F 47% 29.86 in 6.2 mi West 8.1 mph - N/A   Scattered Clouds
4:50 PM 71.6 °F 48.2 °F 43% 29.89 in 6.2 mi WSW 9.2 mph - N/A   Scattered Clouds
5:20 PM 71.6 °F 48.2 °F 43% 29.89 in 6.2 mi SW 6.9 mph - N/A   Scattered Clouds
5:50 PM 69.8 °F 51.8 °F 53% 29.89 in 6.2 mi SSW 5.8 mph - N/A   Scattered Clouds
6:20 PM 68.0 °F 53.6 °F 60% 29.89 in 6.2 mi South 4.6 mph - N/A   Scattered Clouds
6:50 PM 66.2 °F 53.6 °F 64% 29.89 in 6.2 mi ENE 2.3 mph - N/A   Scattered Clouds
7:20 PM 62.6 °F 55.4 °F 77% 29.92 in 6.2 mi East 4.6 mph - N/A   Scattered Clouds
7:50 PM 64.4 °F 57.2 °F 77% 29.92 in 6.2 mi SE 4.6 mph - N/A   Scattered Clouds
8:20 PM 64.4 °F 57.2 °F 77% 29.92 in 6.2 mi SE 2.3 mph - N/A   Scattered Clouds
8:50 PM 64.4 °F 57.2 °F 77% 29.95 in 6.2 mi SE 3.5 mph - N/A   Scattered Clouds
9:20 PM 62.6 °F 57.2 °F 82% 29.95 in 6.2 mi NE 2.3 mph - N/A   Scattered Clouds
9:50 PM 62.6 °F 57.2 °F 82% 29.95 in 6.2 mi Calm Calm - N/A   Scattered Clouds
10:20 PM 62.6 °F 57.2 °F 82% 29.95 in 6.2 mi SSE 2.3 mph - N/A   Mostly Cloudy
10:50 PM 62.6 °F 57.2 °F 82% 29.95 in 6.2 mi SE 3.5 mph - N/A   Mostly Cloudy
11:20 PM 60.8 °F 57.2 °F 88% 29.95 in 6.2 mi Variable 2.3 mph - N/A   Mostly Cloudy
11:50 PM 60.8 °F 57.2 °F 88% 29.95 in 6.2 mi SSE 4.6 mph - N/A   Mostly Cloudy